Location: Newark
(49.8348°N, 24.0280°E)
Time: 18:20:24
(UTC+00:00)

deb Explorer IX - Pass Details

Date: 03 February 2020
Orbit: 549 x 1099 km, 38.8° (Epoch: 17 February)

Event Time Altitude Azimuth Distance (km) Brightness Sun altitude
Rises 16:06:46 0° 210° (SSW) 3,227 ? -7.7°
Reaches altitude 10° 16:09:56 10° 190° (S) 2,414 ? -8.2°
Maximum altitude 16:13:31 17° 152° (SSE) 2,082 ? -8.8°
Drops below altitude 10° 16:17:25 10° 114° (ESE) 2,661 ? -9.4°
Enters shadow 16:18:40 - 106° (ESE) 2,986 ? -9.6°
